DW4188 Victoria Point QNL AU current weather conditions

sailwx.info

Wind from 102 at 2 knots gusting 3

Air temperature 21.1° C
Dewpoint 8.7° C

Last reported at 2014-Oct-22 08:31 UTC.
Time now 2014-Oct-22 09:45 UTC

Location: S 27°35' E 153°18'.
View on Google Maps.

See reports from other nearby stations

  
Tides and Currents Weather Stations Pressure Air Temp Water Temp Dewpoint Dewpoint Depression Visibility Wind Speed Wind Dir Waves Ship Positions
date/time (UTC)wind fromknots sea level pressurealtimeterstation pressurevisibilityair tempwater tempwave heightnotes
2014-Oct-22 08:31 102 2 gusting 3 21.1
2014-Oct-22 08:22 090 2 gusting 4 21.1
2014-Oct-22 08:13 097 2 gusting 2 21.1
2014-Oct-22 08:04 101 1 gusting 5 20.6
2014-Oct-22 07:37 102 1 gusting 5 21.7
2014-Oct-22 07:28 100 3 gusting 6 21.7
2014-Oct-22 07:19 094 3 gusting 7 21.7
2014-Oct-22 07:01 101 4 gusting 6 21.7
2014-Oct-22 06:52 098 4 gusting 7 22.2
2014-Oct-22 06:43 090 3 gusting 7 22.2
2014-Oct-22 06:34 109 4 gusting 7 22.2
2014-Oct-22 06:16 110 3 gusting 8 22.2
2014-Oct-22 05:40 095 6 gusting 7 23.3
2014-Oct-22 05:22 107 3 gusting 11 23.9
2014-Oct-22 05:13 123 5 gusting 8 23.9
2014-Oct-22 05:04 104 5 gusting 8 23.9
2014-Oct-22 04:55 106 6 gusting 8 24.4
2014-Oct-22 04:37 137 6 gusting 11 24.4
2014-Oct-22 04:28 121 6 gusting 11 24.4
2014-Oct-22 04:10 111 5 gusting 8 25.0
2014-Oct-22 04:01 107 5 gusting 9 25.0
2014-Oct-22 03:34 098 5 gusting 9 25.0
2014-Oct-22 03:25 116 4 gusting 13 24.4
2014-Oct-22 03:07 132 7 gusting 12 25.0
2014-Oct-22 02:58 135 6 gusting 10 25.0
2014-Oct-22 02:40 120 3 gusting 8 25.0
2014-Oct-22 02:31 116 4 gusting 9 23.9
2014-Oct-22 02:22 114 5 gusting 8 23.9
2014-Oct-22 02:13 125 3 gusting 11 23.9
2014-Oct-22 02:04 106 4 gusting 11 23.9
2014-Oct-22 01:55 115 3 gusting 6 23.9
2014-Oct-22 01:46 104 6 gusting 6 23.9
2014-Oct-22 01:37 105 4 gusting 9 23.3
2014-Oct-22 01:28 093 5 gusting 8 24.4
2014-Oct-22 01:19 122 5 gusting 12 25.0
2014-Oct-22 01:10 117 6 gusting 12 25.0
2014-Oct-22 00:43 137 5 gusting 9 22.8
2014-Oct-22 00:34 147 3 gusting 6 23.3
2014-Oct-22 00:25 131 5 gusting 6 22.8
2014-Oct-22 00:16 124 4 gusting 8 22.8
2014-Oct-22 00:07 138 4 gusting 8 22.2
2014-Oct-21 23:58 148 2 gusting 9 22.2
2014-Oct-21 23:49 127 8 gusting 9 22.2
2014-Oct-21 23:31 158 5 gusting 9 22.2
2014-Oct-21 23:13 090 4 gusting 4 21.7
2014-Oct-21 23:04 107 4 gusting 5 21.1
2014-Oct-21 22:55 106 6 gusting 5 21.1
2014-Oct-21 22:19 141 5 gusting 8 20.6
2014-Oct-21 21:52 149 4 gusting 8 20.0
2014-Oct-21 21:43 146 5 gusting 8 19.4
2014-Oct-21 21:34 150 4 gusting 11 18.9
2014-Oct-21 21:25 156 3 gusting 6 18.9
2014-Oct-21 21:16 166 2 gusting 6 18.3
2014-Oct-21 20:58 161 0 gusting 5 17.8
2014-Oct-21 20:49 158 2 gusting 8 17.8
2014-Oct-21 20:31 160 1 gusting 7 17.8
2014-Oct-21 20:22 161 17.8
2014-Oct-21 20:13 157 2 gusting 5 17.2
2014-Oct-21 19:55 164 2 gusting 6 16.7
2014-Oct-21 19:37 157 2 gusting 6 16.7
2014-Oct-21 19:19 155 3 gusting 7 16.7
2014-Oct-21 19:10 158 2 gusting 6 16.7
2014-Oct-21 18:43 163 2 gusting 5 16.7
2014-Oct-21 18:07 159 1 gusting 7 17.2
2014-Oct-21 17:58 162 2 gusting 4 17.2
2014-Oct-21 17:49 160 3 gusting 5 17.2
2014-Oct-21 17:40 158 1 gusting 4 17.2
2014-Oct-21 17:04 157 3 gusting 6 17.2
2014-Oct-21 16:37 160 2 gusting 5 17.8
2014-Oct-21 16:28 156 0 gusting 5 17.8
2014-Oct-21 16:01 160 2 gusting 4 17.8
2014-Oct-21 15:52 158 0 gusting 2 17.8
2014-Oct-21 15:43 181 17.8
2014-Oct-21 15:34 170 17.8
2014-Oct-21 15:25 158 17.8
2014-Oct-21 15:16 157 0 gusting 6 17.2
2014-Oct-21 15:07 163 2 gusting 5 17.8
2014-Oct-21 14:49 156 4 gusting 6 17.8
2014-Oct-21 13:55 158 2 gusting 7 18.3
2014-Oct-21 13:37 152 3 gusting 9 17.8
2014-Oct-21 13:28 160 3 gusting 5 17.8
2014-Oct-21 13:01 147 7 gusting 15 18.3
2014-Oct-21 12:52 144 4 gusting 10 18.3
2014-Oct-21 12:43 150 11 gusting 14 18.3
2014-Oct-21 12:34 152 7 gusting 13 18.3
2014-Oct-21 12:16 152 6 gusting 9 18.3
2014-Oct-21 11:58 153 11 gusting 14 18.3
2014-Oct-21 11:40 157 5 gusting 11 18.9
2014-Oct-21 11:22 153 5 gusting 13 18.9
2014-Oct-21 11:13 153 6 gusting 9 19.4
2014-Oct-21 11:04 149 3 gusting 11 19.4
2014-Oct-21 10:46 144 8 gusting 19 19.4
2014-Oct-21 10:37 150 6 gusting 15 19.4
2014-Oct-21 10:28 151 9 gusting 13 19.4
2014-Oct-21 10:19 141 7 gusting 14 19.4
2014-Oct-21 10:10 153 8 gusting 11 19.4
2014-Oct-21 10:01 153 5 gusting 11 19.4
2014-Oct-21 09:52 149 10 gusting 17 19.4
2014-Oct-21 09:25 138 10 gusting 15 20.0
2014-Oct-21 09:16 145 11 gusting 16 20.0
2014-Oct-21 08:58 141 7 gusting 15 20.0
2014-Oct-21 08:49 147 9 gusting 19 20.0
2014-Oct-21 08:40 147 9 gusting 16 20.0
2014-Oct-21 08:31 149 9 gusting 23 20.6
2014-Oct-21 08:13 143 10 gusting 19 20.6
2014-Oct-21 07:55 152 10 gusting 20 20.6
2014-Oct-21 07:46 141 8 gusting 21 20.6
2014-Oct-21 07:28 148 5 gusting 13 21.1
2014-Oct-21 07:19 126 10 gusting 17 21.1
2014-Oct-21 07:10 141 5 gusting 13 21.1
2014-Oct-21 07:01 135 7 gusting 14 21.7
2014-Oct-21 06:52 140 6 gusting 14 21.7
2014-Oct-21 06:43 128 7 gusting 15 21.7
2014-Oct-21 06:34 132 6 gusting 15 21.7
2014-Oct-21 06:25 140 6 gusting 17 21.7
2014-Oct-21 06:07 139 9 gusting 20 22.2
2014-Oct-21 05:58 141 8 gusting 10 22.2
2014-Oct-21 05:49 122 8 gusting 14 23.3
2014-Oct-21 05:40 131 13 gusting 17 22.8
2014-Oct-21 05:31 117 7 gusting 15 22.8
2014-Oct-21 05:22 135 7 gusting 18 23.3
2014-Oct-21 04:46 146 6 gusting 19 23.9
2014-Oct-21 04:10 131 9 gusting 20 24.4
2014-Oct-21 04:01 145 12 gusting 19 25.0
2014-Oct-21 03:52 137 9 gusting 13 25.0
2014-Oct-21 03:43 129 9 gusting 19 25.0
2014-Oct-21 03:25 145 8 gusting 17 25.6
2014-Oct-21 03:16 139 6 gusting 16 25.6
2014-Oct-21 02:49 140 9 gusting 18 25.6
2014-Oct-21 02:40 152 12 gusting 18 26.1
2014-Oct-21 02:31 158 6 gusting 9 26.1
2014-Oct-21 02:22 158 6 gusting 9 26.1
2014-Oct-21 01:55 151 7 gusting 5 25.6
2014-Oct-21 01:28 139 8 gusting 19 24.4
2014-Oct-21 01:19 137 13 gusting 19 24.4
2014-Oct-21 01:10 139 8 gusting 13 25.6
2014-Oct-21 01:01 143 8 gusting 14 25.0
2014-Oct-21 00:43 147 11 gusting 17 24.4
2014-Oct-21 00:34 155 11 gusting 21 24.4
2014-Oct-20 23:40 146 6 gusting 13 23.9
2014-Oct-20 23:31 139 9 gusting 20 23.3
2014-Oct-20 23:22 125 9 gusting 19 23.3
2014-Oct-20 23:13 119 12 gusting 19 22.8
2014-Oct-20 23:04 140 8 gusting 21 22.8
2014-Oct-20 22:37 166 11 gusting 13 21.7
2014-Oct-20 22:28 157 9 gusting 14 21.7
2014-Oct-20 22:19 156 11 gusting 14 21.7
2014-Oct-20 22:10 158 8 gusting 9 21.1
2014-Oct-20 22:01 148 8 gusting 13 21.1
2014-Oct-20 21:52 143 5 gusting 6 20.6
2014-Oct-20 21:43 162 9 gusting 16 20.6
2014-Oct-20 21:34 169 7 gusting 16 20.0
2014-Oct-20 21:25 158 6 gusting 8 20.0
2014-Oct-20 21:16 151 3 gusting 7 19.4
2014-Oct-20 21:07 158 4 gusting 9 19.4
2014-Oct-20 20:58 152 5 gusting 11 19.4
2014-Oct-20 20:49 142 6 gusting 13 18.9
2014-Oct-20 20:40 149 6 gusting 17 18.9
2014-Oct-20 20:31 153 7 gusting 17 18.9
2014-Oct-20 20:22 141 6 gusting 11 18.9
2014-Oct-20 20:13 147 2 gusting 11 18.9
2014-Oct-20 19:55 144 7 gusting 17 18.3
2014-Oct-20 19:46 148 13 gusting 17 18.3
2014-Oct-20 19:37 153 10 gusting 19 18.3
2014-Oct-20 19:10 154 5 gusting 5 18.3
2014-Oct-20 18:52 153 5 gusting 11 18.9
2014-Oct-20 18:34 155 6 gusting 7 19.4
2014-Oct-20 18:16 135 20.0
2014-Oct-20 18:07 20.6
2014-Oct-20 17:58 20.6
2014-Oct-20 17:49 21.1
2014-Oct-20 17:22 20.0
2014-Oct-20 17:13 20.0
2014-Oct-20 17:04 20.0
2014-Oct-20 16:55 19.4
2014-Oct-20 16:46 19.4
2014-Oct-20 16:37 19.4
2014-Oct-20 16:28 18.9
2014-Oct-20 16:19 18.9
2014-Oct-20 15:52 21.1
2014-Oct-20 15:43 21.1
2014-Oct-20 15:25 20.6
2014-Oct-20 14:58 20.6
2014-Oct-20 14:40 158 20.6
2014-Oct-20 14:31 158 20.0
2014-Oct-20 14:22 167 20.0
2014-Oct-20 14:13 162 20.0
2014-Oct-20 14:04 158 1 gusting 4 20.0
2014-Oct-20 13:55 165 1 gusting 2 20.0
2014-Oct-20 13:46 160 1 gusting 6 20.0
2014-Oct-20 13:37 155 4 gusting 7 20.0
2014-Oct-20 13:19 152 4 gusting 6 20.0
2014-Oct-20 13:01 150 4 gusting 8 20.6
2014-Oct-20 12:52 153 3 gusting 8 20.6
2014-Oct-20 12:34 155 4 gusting 8 20.6
2014-Oct-20 12:16 153 4 gusting 8 20.6
2014-Oct-20 11:58 153 7 gusting 10 20.6
2014-Oct-20 11:49 147 8 gusting 9 20.6
2014-Oct-20 11:40 143 6 gusting 11 21.1
2014-Oct-20 11:31 152 5 gusting 9 21.1
2014-Oct-20 11:22 150 4 gusting 11 21.1
2014-Oct-20 11:13 156 6 gusting 10 21.1
2014-Oct-20 11:04 140 2 gusting 6 21.1
2014-Oct-20 10:55 129 3 gusting 5 21.1
2014-Oct-20 10:46 148 2 gusting 8 21.1
2014-Oct-20 10:28 149 2 gusting 5 21.1
2014-Oct-20 10:10 124 2 gusting 5 21.7
2014-Oct-20 09:52 117 0 gusting 5 21.7
2014-Oct-20 09:16 094 22.2
2014-Oct-20 09:07 095 0 gusting 2 21.7